Retour au catalogue

STARLINK-34500

ActifCommunicationsVLEO
NORAD 64613·PAYLOAD·🇺🇸 United States

Lancé Jun 25, 2025 depuis Cape Canaveral Space Force Station

Loading…

Prochains Passages (prochaines 24 heures)

TLE

FraisSource: CelesTrak SupGP

Époque: Sep 15, 2026, 03:01 UTC

1 64613C 25137V   26258.12618056 -.00025551  00000+0 -75500-3 0  2587
2 64613  53.1576 172.5695 0001313  87.2238  43.8489 15.34399482    17

Suivez STARLINK-34500 en temps réel avec AllMySat

Download on the App Store